NKS2704 KFLL-KPNS

Flight info

Callsign NKS2704
Flight time 1h 30m
Altitude 32000
Route HROCK2 SMELZ Q116 JAWJA CEW PENSI
Aircraft A320/M-SDE3FGHIRWY/LB1

Departure

Time 2026-05-03 20:53
Airport Fort Lauderdale Hollywood International Airport (KFLL)

Arrival

Time 2026-05-03 22:24
Airport Pensacola International Airport (KPNS)
Time Latitude Longitude Altitude Speed Heading
2026-05-03 20:15 26.06881 -80.14297 16 ft 0 kts
2026-05-03 20:23 26.06859 -80.14297 16 ft 4 kts
2026-05-03 20:24 26.06832 -80.14297 16 ft 4 kts
2026-05-03 20:24 26.06805 -80.14297 18 ft 4 kts
2026-05-03 20:24 26.06798 -80.14297 15 ft 0 kts
2026-05-03 20:26 26.06800 -80.14298 16 ft 2 kts 350°
2026-05-03 20:27 26.06812 -80.14320 16 ft 0 kts 285°
2026-05-03 20:28 26.06816 -80.14341 16 ft 4 kts 279°
2026-05-03 20:28 26.06817 -80.14349 16 ft 0 kts 276°
2026-05-03 20:29 26.06817 -80.14387 16 ft 10 kts 269°
2026-05-03 20:30 26.06817 -80.14481 16 ft 13 kts 270°
2026-05-03 20:30 26.06796 -80.14578 17 ft 14 kts 221°
2026-05-03 20:30 26.06766 -80.14681 15 ft 15 kts 270°
2026-05-03 20:30 26.06766 -80.14824 15 ft 22 kts 270°
2026-05-03 20:31 26.06768 -80.14994 16 ft 22 kts 270°
2026-05-03 20:31 26.06767 -80.15151 16 ft 19 kts 268°
2026-05-03 20:31 26.06769 -80.15295 16 ft 18 kts 270°
2026-05-03 20:31 26.06737 -80.15387 17 ft 12 kts 201°
2026-05-03 20:32 26.06697 -80.15472 16 ft 15 kts 269°
2026-05-03 20:32 26.06698 -80.15569 16 ft 6 kts 271°
2026-05-03 20:32 26.06698 -80.15576 16 ft 1 kts 270°
2026-05-03 20:32 26.06698 -80.15591 16 ft 3 kts 270°
2026-05-03 20:33 26.06698 -80.15620 16 ft 5 kts 270°
2026-05-03 20:33 26.06698 -80.15651 16 ft 0 kts 270°
2026-05-03 20:34 26.06698 -80.15663 18 ft 2 kts 270°
2026-05-03 20:35 26.06698 -80.15688 17 ft 2 kts 270°
2026-05-03 20:35 26.06698 -80.15694 18 ft 2 kts 270°
2026-05-03 20:35 26.06698 -80.15711 18 ft 0 kts 270°
2026-05-03 20:39 26.06698 -80.15716 16 ft 0 kts 270°
2026-05-03 20:44 26.06698 -80.15726 16 ft 2 kts 270°
2026-05-03 20:44 26.06698 -80.15750 18 ft 4 kts 270°
2026-05-03 20:45 26.06697 -80.15778 16 ft 1 kts 263°
2026-05-03 20:45 26.06697 -80.15782 16 ft 1 kts 261°
2026-05-03 20:45 26.06696 -80.15785 16 ft 0 kts 261°
2026-05-03 20:48 26.06689 -80.15804 17 ft 4 kts 236°
2026-05-03 20:48 26.06676 -80.15817 16 ft 0 kts 215°
2026-05-03 20:52 26.06660 -80.15821 17 ft 8 kts 192°
2026-05-03 20:52 26.06590 -80.15789 18 ft 12 kts 113°
2026-05-03 20:52 26.06588 -80.15760 19 ft 0 kts 89°
2026-05-03 20:53 26.06587 -80.15698 21 ft 35 kts 91°
2026-05-03 20:53 26.06590 -80.15150 21 ft 103 kts 88°
2026-05-03 20:53 26.06580 -80.14170 75 ft 146 kts 89°
2026-05-03 20:53 26.06573 -80.13056 732 ft 136 kts 89°
2026-05-03 20:54 26.06569 -80.12355 1086 ft 144 kts 86°
2026-05-03 20:54 26.07254 -80.10017 1690 ft 168 kts 53°
2026-05-03 20:54 26.08123 -80.08515 2149 ft 181 kts 56°
2026-05-03 20:55 26.08619 -80.07730 2376 ft 186 kts 45°
2026-05-03 20:55 26.09682 -80.06889 2724 ft 192 kts 19°
2026-05-03 20:55 26.10962 -80.06372 3086 ft 201 kts 17°
2026-05-03 20:55 26.12311 -80.05832 3435 ft 212 kts 18°
2026-05-03 20:56 26.13761 -80.05244 3775 ft 233 kts 17°
2026-05-03 20:56 26.15442 -80.04832 4002 ft 261 kts 357°
2026-05-03 20:56 26.17216 -80.05236 4011 ft 261 kts 338°
2026-05-03 20:56 26.18946 -80.05910 4020 ft 264 kts 338°
2026-05-03 20:57 26.20628 -80.06661 4034 ft 263 kts 328°
2026-05-03 20:57 26.22067 -80.07874 4012 ft 259 kts 311°
2026-05-03 20:57 26.23125 -80.09478 4019 ft 258 kts 296°
2026-05-03 20:57 26.23825 -80.11323 4023 ft 260 kts 291°
2026-05-03 20:58 26.24491 -80.13197 4021 ft 260 kts 290°
2026-05-03 20:58 26.25159 -80.15073 4059 ft 262 kts 291°
2026-05-03 20:58 26.25740 -80.17005 4823 ft 262 kts 285°
2026-05-03 20:58 26.26258 -80.18969 5646 ft 265 kts 285°
2026-05-03 20:59 26.26788 -80.20942 6485 ft 267 kts 285°
2026-05-03 20:59 26.27320 -80.22927 7248 ft 268 kts 285°
2026-05-03 20:59 26.27853 -80.24925 8056 ft 269 kts 285°
2026-05-03 20:59 26.28387 -80.26927 8841 ft 270 kts 284°
2026-05-03 21:00 26.28926 -80.28939 9657 ft 272 kts 284°
2026-05-03 21:00 26.29283 -80.30285 10181 ft 274 kts 284°
2026-05-03 21:00 26.30040 -80.33156 10563 ft 304 kts 284°
2026-05-03 21:00 26.30656 -80.35501 10864 ft 323 kts 284°
2026-05-03 21:01 26.31303 -80.37937 11447 ft 330 kts 284°
2026-05-03 21:01 26.31960 -80.40407 12047 ft 334 kts 284°
2026-05-03 21:01 26.32614 -80.42871 12635 ft 337 kts 284°
2026-05-03 21:01 26.33280 -80.45384 13225 ft 339 kts 284°
2026-05-03 21:02 26.33954 -80.47918 13821 ft 342 kts 284°
2026-05-03 21:02 26.34631 -80.50467 14355 ft 345 kts 284°
2026-05-03 21:02 26.35312 -80.53038 14899 ft 346 kts 284°
2026-05-03 21:02 26.35992 -80.55620 15459 ft 347 kts 283°
2026-05-03 21:03 26.36670 -80.58208 15996 ft 348 kts 283°
2026-05-03 21:03 26.37353 -80.60813 16489 ft 350 kts 283°
2026-05-03 21:03 26.38039 -80.63432 17026 ft 353 kts 283°
2026-05-03 21:03 26.38723 -80.66036 17556 ft 355 kts 283°
2026-05-03 21:04 26.39420 -80.68685 18083 ft 357 kts 283°
2026-05-03 21:04 26.40316 -80.71293 18638 ft 365 kts 292°
2026-05-03 21:04 26.41710 -80.73685 19296 ft 371 kts 304°
2026-05-03 21:04 26.43449 -80.75843 19835 ft 377 kts 307°
2026-05-03 21:05 26.45239 -80.78005 20232 ft 381 kts 307°
2026-05-03 21:05 26.47045 -80.80180 20643 ft 384 kts 307°
2026-05-03 21:05 26.48867 -80.82373 21053 ft 386 kts 306°
2026-05-03 21:05 26.50696 -80.84579 21487 ft 389 kts 306°
2026-05-03 21:06 26.52537 -80.86804 21876 ft 391 kts 306°
2026-05-03 21:06 26.54388 -80.89043 22263 ft 393 kts 306°
2026-05-03 21:06 26.56247 -80.91297 22644 ft 395 kts 306°
2026-05-03 21:06 26.58117 -80.93567 23071 ft 399 kts 305°
2026-05-03 21:07 26.60005 -80.95859 23534 ft 402 kts 305°
2026-05-03 21:07 26.61911 -80.98166 23931 ft 405 kts 305°
2026-05-03 21:07 26.63823 -81.00484 24321 ft 407 kts 305°
2026-05-03 21:07 26.65750 -81.02825 24693 ft 409 kts 305°
2026-05-03 21:08 26.67677 -81.05168 25034 ft 410 kts 305°
2026-05-03 21:08 26.69614 -81.07523 25353 ft 412 kts 305°
2026-05-03 21:08 26.71558 -81.09890 25671 ft 414 kts 305°
2026-05-03 21:08 26.73508 -81.12267 25993 ft 415 kts 305°
2026-05-03 21:09 26.75436 -81.14621 26299 ft 417 kts 305°
2026-05-03 21:09 26.77398 -81.17018 26641 ft 419 kts 305°
2026-05-03 21:09 26.79372 -81.19427 26998 ft 421 kts 305°
2026-05-03 21:09 26.81353 -81.21844 27356 ft 423 kts 305°
2026-05-03 21:10 26.83348 -81.24277 27697 ft 425 kts 305°
2026-05-03 21:10 26.85349 -81.26713 28048 ft 426 kts 305°
2026-05-03 21:10 26.87360 -81.29168 28391 ft 428 kts 305°
2026-05-03 21:10 26.89366 -81.31620 28884 ft 426 kts 305°
2026-05-03 21:11 26.91363 -81.34059 29447 ft 423 kts 304°
2026-05-03 21:11 26.93349 -81.36489 29953 ft 421 kts 304°
2026-05-03 21:11 26.95324 -81.38908 30392 ft 419 kts 304°
2026-05-03 21:11 26.97287 -81.41311 30822 ft 417 kts 304°
2026-05-03 21:12 26.99241 -81.43703 31271 ft 415 kts 303°
2026-05-03 21:12 27.01183 -81.46080 31718 ft 412 kts 303°
2026-05-03 21:12 27.03116 -81.48448 32002 ft 410 kts 303°
2026-05-03 21:12 27.05112 -81.50699 32074 ft 417 kts 310°
2026-05-03 21:13 27.09993 -81.54419 32076 ft 426 kts 317°
2026-05-03 21:13 27.14987 -81.58012 32078 ft 426 kts 317°
2026-05-03 21:14 27.19987 -81.61616 32075 ft 426 kts 317°
2026-05-03 21:14 27.24977 -81.65225 32079 ft 427 kts 316°
2026-05-03 21:15 27.29968 -81.68839 32083 ft 427 kts 316°
2026-05-03 21:15 27.34968 -81.72456 32084 ft 427 kts 316°
2026-05-03 21:16 27.39960 -81.76074 32082 ft 427 kts 316°
2026-05-03 21:16 27.44950 -81.79689 32081 ft 427 kts 317°
2026-05-03 21:17 27.47625 -81.81259 32086 ft 441 kts 326°
2026-05-03 21:17 27.49504 -81.82180 32088 ft 446 kts 326°
2026-05-03 21:17 27.56165 -81.85408 32086 ft 442 kts 326°
2026-05-03 21:18 27.61771 -81.88122 32087 ft 440 kts 326°
2026-05-03 21:18 27.67393 -81.90872 32085 ft 440 kts 326°
2026-05-03 21:19 27.73010 -81.93629 32086 ft 440 kts 326°
2026-05-03 21:19 27.78633 -81.96385 32083 ft 440 kts 326°
2026-05-03 21:20 27.84258 -81.99131 32130 ft 440 kts 325°
2026-05-03 21:20 27.89886 -82.01887 32084 ft 441 kts 325°
2026-05-03 21:21 27.95504 -82.04652 32080 ft 440 kts 325°
2026-05-03 21:21 28.01133 -82.07415 32082 ft 441 kts 325°
2026-05-03 21:22 28.06723 -82.10162 32073 ft 440 kts 324°
2026-05-03 21:22 28.09368 -82.11788 32074 ft 426 kts 315°
2026-05-03 21:22 28.11785 -82.13703 32073 ft 423 kts 314°
2026-05-03 21:23 28.16595 -82.17548 32080 ft 423 kts 314°
2026-05-03 21:23 28.21411 -82.21384 32083 ft 423 kts 314°
2026-05-03 21:24 28.26222 -82.25232 32083 ft 423 kts 314°
2026-05-03 21:24 28.31029 -82.29082 32085 ft 423 kts 314°
2026-05-03 21:25 28.35838 -82.32930 32087 ft 423 kts 314°
2026-05-03 21:25 28.40642 -82.36783 32078 ft 423 kts 313°
2026-05-03 21:26 28.45451 -82.40642 32143 ft 423 kts 313°
2026-05-03 21:26 28.50248 -82.44497 32083 ft 422 kts 313°
2026-05-03 21:27 28.55009 -82.48328 32080 ft 422 kts 313°
2026-05-03 21:27 28.59830 -82.52210 32095 ft 421 kts 313°
2026-05-03 21:28 28.64586 -82.56044 32086 ft 422 kts 313°
2026-05-03 21:28 28.69371 -82.59904 32086 ft 422 kts 313°
2026-05-03 21:29 28.74164 -82.63776 32090 ft 422 kts 313°
2026-05-03 21:29 28.78947 -82.67650 32088 ft 421 kts 313°
2026-05-03 21:30 28.83720 -82.71519 32083 ft 421 kts 313°
2026-05-03 21:30 28.88502 -82.75400 32085 ft 421 kts 313°
2026-05-03 21:31 28.93279 -82.79279 32093 ft 421 kts 313°
2026-05-03 21:31 28.98047 -82.83145 32086 ft 420 kts 313°
2026-05-03 21:32 29.02805 -82.87015 32086 ft 419 kts 313°
2026-05-03 21:32 29.07551 -82.90895 32102 ft 419 kts 313°
2026-05-03 21:33 29.12293 -82.94759 32084 ft 418 kts 313°
2026-05-03 21:33 29.17006 -82.98611 32084 ft 418 kts 313°
2026-05-03 21:34 29.21738 -83.02484 32089 ft 418 kts 313°
2026-05-03 21:34 29.26487 -83.06357 32090 ft 418 kts 313°
2026-05-03 21:35 29.31225 -83.10234 32096 ft 418 kts 313°
2026-05-03 21:35 29.35712 -83.14342 32096 ft 399 kts 299°
2026-05-03 21:36 29.37182 -83.16942 32125 ft 382 kts 286°
2026-05-03 21:36 29.38207 -83.19694 32093 ft 380 kts 285°
2026-05-03 21:36 29.40247 -83.25290 32094 ft 380 kts 285°
2026-05-03 21:37 29.42287 -83.30883 32095 ft 380 kts 285°
2026-05-03 21:37 29.44328 -83.36476 32101 ft 380 kts 285°
2026-05-03 21:38 29.46369 -83.42074 32100 ft 380 kts 285°
2026-05-03 21:38 29.48414 -83.47670 32103 ft 380 kts 285°
2026-05-03 21:39 29.50447 -83.53277 32102 ft 380 kts 284°
2026-05-03 21:39 29.52478 -83.58888 32103 ft 380 kts 285°
2026-05-03 21:40 29.54509 -83.64495 32107 ft 380 kts 285°
2026-05-03 21:40 29.56576 -83.70211 32108 ft 396 kts 285°
2026-05-03 21:41 29.58709 -83.76126 32109 ft 408 kts 285°
2026-05-03 21:41 29.60895 -83.82181 32109 ft 410 kts 285°
2026-05-03 21:42 29.62715 -83.87219 32109 ft 410 kts 285°
2026-05-03 21:42 29.64894 -83.93285 32114 ft 410 kts 285°
2026-05-03 21:43 29.67074 -83.99355 32111 ft 411 kts 285°
2026-05-03 21:43 29.69254 -84.05430 32111 ft 411 kts 285°
2026-05-03 21:44 29.71431 -84.11509 32110 ft 412 kts 285°
2026-05-03 21:44 29.73607 -84.17608 32111 ft 412 kts 285°
2026-05-03 21:45 29.75771 -84.23676 32118 ft 413 kts 285°
2026-05-03 21:45 29.77948 -84.29790 32133 ft 412 kts 285°
2026-05-03 21:46 29.80120 -84.35899 32118 ft 412 kts 285°
2026-05-03 21:46 29.82285 -84.42005 32121 ft 412 kts 285°
2026-05-03 21:47 29.84447 -84.48115 32116 ft 411 kts 285°
2026-05-03 21:47 29.86608 -84.54228 32126 ft 412 kts 285°
2026-05-03 21:48 29.88763 -84.60339 32124 ft 411 kts 285°
2026-05-03 21:48 29.90901 -84.66411 32122 ft 412 kts 285°
2026-05-03 21:49 29.93054 -84.72538 32130 ft 412 kts 285°
2026-05-03 21:49 29.95205 -84.78668 32133 ft 412 kts 285°
2026-05-03 21:50 29.97349 -84.84800 32130 ft 412 kts 285°
2026-05-03 21:50 29.99497 -84.90933 32129 ft 412 kts 285°
2026-05-03 21:51 30.01639 -84.97064 32126 ft 412 kts 285°
2026-05-03 21:51 30.03780 -85.03218 32130 ft 413 kts 285°
2026-05-03 21:52 30.05913 -85.09340 32129 ft 413 kts 285°
2026-05-03 21:52 30.08051 -85.15502 32111 ft 413 kts 285°
2026-05-03 21:53 30.10433 -85.21570 32114 ft 420 kts 292°
2026-05-03 21:53 30.13366 -85.27417 32114 ft 420 kts 293°
2026-05-03 21:54 30.16304 -85.33266 32109 ft 420 kts 293°
2026-05-03 21:54 30.19237 -85.39109 32111 ft 420 kts 292°
2026-05-03 21:55 30.22163 -85.44960 32127 ft 420 kts 293°
2026-05-03 21:55 30.25083 -85.50809 32134 ft 419 kts 293°
2026-05-03 21:56 30.27992 -85.56648 32116 ft 418 kts 292°
2026-05-03 21:56 30.29437 -85.59548 31469 ft 416 kts 293°
2026-05-03 21:56 30.30885 -85.62460 30572 ft 419 kts 293°
2026-05-03 21:57 30.32320 -85.65357 29813 ft 420 kts 293°
2026-05-03 21:57 30.33779 -85.68303 29511 ft 425 kts 293°
2026-05-03 21:57 30.35259 -85.71293 28956 ft 429 kts 294°
2026-05-03 21:57 30.36755 -85.74310 28402 ft 432 kts 294°
2026-05-03 21:58 30.38255 -85.77341 27849 ft 435 kts 294°
2026-05-03 21:58 30.39766 -85.80387 27287 ft 438 kts 294°
2026-05-03 21:58 30.41287 -85.83458 26718 ft 441 kts 294°
2026-05-03 21:58 30.42815 -85.86546 26161 ft 443 kts 294°
2026-05-03 21:59 30.44349 -85.89656 25615 ft 446 kts 294°
2026-05-03 21:59 30.45889 -85.92779 25055 ft 445 kts 294°
2026-05-03 21:59 30.47422 -85.95880 24510 ft 443 kts 295°
2026-05-03 21:59 30.48953 -85.98973 23983 ft 441 kts 295°
2026-05-03 22:00 30.50476 -86.02056 23426 ft 439 kts 295°
2026-05-03 22:00 30.51986 -86.05122 22913 ft 437 kts 295°
2026-05-03 22:00 30.53489 -86.08176 22412 ft 435 kts 295°
2026-05-03 22:00 30.54981 -86.11218 21912 ft 433 kts 295°
2026-05-03 22:01 30.56469 -86.14250 21411 ft 431 kts 295°
2026-05-03 22:01 30.57948 -86.17265 20903 ft 429 kts 295°
2026-05-03 22:01 30.59422 -86.20274 20389 ft 427 kts 296°
2026-05-03 22:01 30.60888 -86.23265 19846 ft 425 kts 296°
2026-05-03 22:02 30.62345 -86.26244 19280 ft 423 kts 296°
2026-05-03 22:02 30.63798 -86.29212 18734 ft 422 kts 296°
2026-05-03 22:02 30.65242 -86.32165 18141 ft 419 kts 297°
2026-05-03 22:02 30.66676 -86.35098 17565 ft 416 kts 297°
2026-05-03 22:03 30.68084 -86.37975 17022 ft 413 kts 297°
2026-05-03 22:03 30.69499 -86.40868 16460 ft 410 kts 297°
2026-05-03 22:03 30.70899 -86.43740 15834 ft 407 kts 297°
2026-05-03 22:03 30.72282 -86.46585 15267 ft 402 kts 297°
2026-05-03 22:04 30.73654 -86.49416 14709 ft 399 kts 297°
2026-05-03 22:04 30.75011 -86.52214 14168 ft 396 kts 297°
2026-05-03 22:04 30.76361 -86.54996 13594 ft 393 kts 298°
2026-05-03 22:04 30.77700 -86.57754 13036 ft 390 kts 298°
2026-05-03 22:05 30.79030 -86.60497 12497 ft 388 kts 298°
2026-05-03 22:05 30.80353 -86.63226 11941 ft 386 kts 298°
2026-05-03 22:05 30.81664 -86.65934 11418 ft 383 kts 299°
2026-05-03 22:05 30.82878 -86.68685 11092 ft 382 kts 290°
2026-05-03 22:06 30.83297 -86.71718 11008 ft 383 kts 270°
2026-05-03 22:06 30.83183 -86.74823 11028 ft 385 kts 268°
2026-05-03 22:06 30.83004 -86.77929 11045 ft 385 kts 266°
2026-05-03 22:06 30.82784 -86.81037 11016 ft 385 kts 266°
2026-05-03 22:07 30.82544 -86.84140 11013 ft 386 kts 266°
2026-05-03 22:07 30.82299 -86.87245 11010 ft 385 kts 266°
2026-05-03 22:07 30.82062 -86.90306 11023 ft 385 kts 266°
2026-05-03 22:07 30.81827 -86.93413 11012 ft 385 kts 266°
2026-05-03 22:08 30.81592 -86.96557 11005 ft 385 kts 266°
2026-05-03 22:08 30.81368 -86.99622 11017 ft 385 kts 266°
2026-05-03 22:08 30.81142 -87.02730 11019 ft 385 kts 266°
2026-05-03 22:08 30.80918 -87.05834 11010 ft 385 kts 266°
2026-05-03 22:09 30.80692 -87.08939 11015 ft 385 kts 266°
2026-05-03 22:09 30.80463 -87.12043 11017 ft 385 kts 266°
2026-05-03 22:09 30.80232 -87.15153 11016 ft 385 kts 265°
2026-05-03 22:10 30.78255 -87.20614 10846 ft 359 kts 228°
2026-05-03 22:10 30.76269 -87.22266 10725 ft 348 kts 206°
2026-05-03 22:10 30.73964 -87.22924 10555 ft 340 kts 184°
2026-05-03 22:10 30.71633 -87.22788 10432 ft 330 kts 177°
2026-05-03 22:11 30.69393 -87.22440 10310 ft 321 kts 165°
2026-05-03 22:11 30.67345 -87.21510 10193 ft 312 kts 157°
2026-05-03 22:11 30.65397 -87.20488 10002 ft 305 kts 156°
2026-05-03 22:11 30.63472 -87.19467 9680 ft 303 kts 156°
2026-05-03 22:12 30.61577 -87.18469 9376 ft 302 kts 156°
2026-05-03 22:12 30.59645 -87.17457 9061 ft 299 kts 156°
2026-05-03 22:12 30.57751 -87.16473 8745 ft 297 kts 156°
2026-05-03 22:12 30.55868 -87.15501 8425 ft 295 kts 156°
2026-05-03 22:13 30.53991 -87.14541 8111 ft 294 kts 156°
2026-05-03 22:13 30.52119 -87.13592 7805 ft 293 kts 156°
2026-05-03 22:13 30.50277 -87.12668 7522 ft 291 kts 156°
2026-05-03 22:13 30.48440 -87.11753 7339 ft 280 kts 156°
2026-05-03 22:14 30.46703 -87.10896 7219 ft 263 kts 156°
2026-05-03 22:14 30.45076 -87.10098 7091 ft 246 kts 156°
2026-05-03 22:14 30.43538 -87.09351 6889 ft 236 kts 156°
2026-05-03 22:14 30.42034 -87.08623 6690 ft 232 kts 156°
2026-05-03 22:15 30.40547 -87.07907 6420 ft 232 kts 156°
2026-05-03 22:15 30.39065 -87.07195 6167 ft 230 kts 156°
2026-05-03 22:15 30.37587 -87.06486 5925 ft 229 kts 156°
2026-05-03 22:15 30.36117 -87.05777 5658 ft 228 kts 156°
2026-05-03 22:16 30.34652 -87.05075 5402 ft 228 kts 156°
2026-05-03 22:16 30.33193 -87.04378 5144 ft 226 kts 156°
2026-05-03 22:16 30.31743 -87.03681 4890 ft 225 kts 156°
2026-05-03 22:16 30.30305 -87.02987 4607 ft 223 kts 156°
2026-05-03 22:17 30.28867 -87.02290 4325 ft 224 kts 156°
2026-05-03 22:17 30.27429 -87.01604 4054 ft 223 kts 161°
2026-05-03 22:17 30.25912 -87.01484 3789 ft 219 kts 196°
2026-05-03 22:17 30.24634 -87.02356 3498 ft 214 kts 232°
2026-05-03 22:18 30.24011 -87.03875 3191 ft 209 kts 261°
2026-05-03 22:18 30.23784 -87.05502 3024 ft 208 kts 265°
2026-05-03 22:18 30.23611 -87.07189 3031 ft 210 kts 266°
2026-05-03 22:18 30.23456 -87.08844 3033 ft 209 kts 270°
2026-05-03 22:19 30.23742 -87.10445 3024 ft 204 kts 304°
2026-05-03 22:19 30.24773 -87.11511 3022 ft 200 kts 335°
2026-05-03 22:19 30.26070 -87.12112 3037 ft 201 kts 341°
2026-05-03 22:19 30.27396 -87.12645 3040 ft 202 kts 341°
2026-05-03 22:20 30.28723 -87.13173 3029 ft 202 kts 341°
2026-05-03 22:20 30.30051 -87.13698 3013 ft 201 kts 341°
2026-05-03 22:20 30.31380 -87.14225 3012 ft 202 kts 341°
2026-05-03 22:20 30.32715 -87.14701 2770 ft 200 kts 346°
2026-05-03 22:21 30.34074 -87.15102 2506 ft 202 kts 346°
2026-05-03 22:21 30.35414 -87.15481 2364 ft 195 kts 347°
2026-05-03 22:21 30.36689 -87.15841 2268 ft 180 kts 347°
2026-05-03 22:21 30.37855 -87.16174 2058 ft 167 kts 348°
2026-05-03 22:22 30.38960 -87.16501 1783 ft 158 kts 345°
2026-05-03 22:22 30.39969 -87.16817 1585 ft 145 kts 346°
2026-05-03 22:22 30.40958 -87.17121 1278 ft 143 kts 347°
2026-05-03 22:22 30.41916 -87.17371 1018 ft 143 kts 347°
2026-05-03 22:23 30.42871 -87.17620 794 ft 142 kts 346°
2026-05-03 22:23 30.43823 -87.17873 630 ft 140 kts 345°
2026-05-03 22:23 30.44781 -87.18130 427 ft 141 kts 345°
2026-05-03 22:23 30.45753 -87.18391 266 ft 143 kts 345°
2026-05-03 22:24 30.46721 -87.18648 147 ft 139 kts 344°
2026-05-03 22:24 30.47552 -87.18867 121 ft 97 kts 346°
2026-05-03 22:24 30.47920 -87.18965 128 ft 19 kts 347°
2026-05-03 22:24 30.47966 -87.19081 124 ft 19 kts 252°
2026-05-03 22:25 30.47872 -87.19114 127 ft 16 kts 166°
2026-05-03 22:25 30.47756 -87.19083 123 ft 14 kts 168°
2026-05-03 22:25 30.47687 -87.19124 126 ft 10 kts 239°
2026-05-03 22:25 30.47659 -87.19151 130 ft 1 kts 206°
2026-05-03 22:26 30.47644 -87.19160 127 ft 4 kts 208°
2026-05-03 22:26 30.47610 -87.19185 127 ft 7 kts 216°
2026-05-03 22:26 30.47583 -87.19223 127 ft 3 kts 231°
2026-05-03 22:26 30.47582 -87.19223 127 ft 0 kts 231°